Location: Willingham
(52.3167°N, 0.0667°E)
Time: 14:41:42
(UTC+00:00)

Cosmos 1766 Rocket - Pass Details

Date: 19 May 2025
Orbit: 598 x 627 km, 82.5° (Epoch: 17 June)

Event Time Altitude Azimuth Distance (km) Brightness Sun altitude
Rises 21:52:53 0° 351° (N) 2,912 8.4 -12.9°
Reaches altitude 10° 21:55:10 10° 356° (N) 1,996 7.3 -13.1°
Maximum altitude 21:59:32 58° 76° (ENE) 719 3.8 -13.4°
Enters shadow 22:02:14 22° 149° (SSE) 1,355 4.7 -13.6°
